Location: Dehesa de la Cepeda
(40.6574°N, 4.3013°W)
Time: 19:18:20
(UTC+00:00)

Explorer 7 - Pass Details

Date: 06 August 2021
Orbit: 484 x 676 km, 50.3° (Epoch: 17 September)

Event Time Altitude Azimuth Distance (km) Brightness Sun altitude
Exits shadow 02:20:25 18° 93° (E) 1,256 8.9 -26.5°
Drops below altitude 10° 02:21:45 10° 78° (ENE) 1,672 9.8 -26.4°
Sets 02:24:11 0° 65° (ENE) 2,572 11.1 -26.2°
